[[{"header":{"parameterUnit":"m.s-1","parameterCategory":1,"la1":30.2991,"la2":30.254,"lo1":-89.0895,"lo2":-89.0444,"dx":0.0017,"dy":0.0017,"nx":28,"ny":28,"refTime":"2023-01-22T03:00:00:Z","depth":0,"parameterNumber":2,"parameterNumberName":"U-component_of_WINDS"},"data":[0,0,0,0,0,0,0,0,0,0,0,0,0,0,0,0,0,0,0,0,0,0,0,0,0,0,0,0,0,0,0,0,0,0,0,0,0,0,0,0,0,0,0,0,0,0,0,0,0,0,0,0,0,0,0,0,0,0,1.1464,1.1463,0,1.1412,1.1411,1.1411,1.1291,1.1288,1.1286,1.1284,1.1234,1.1235,1.1236,0,0,0,0,0,0,0,0,0,0,0,0,0,1.1464,1.1465,1.1464,1.1463,1.1463,1.1412,1.1411,1.1411,1.1291,1.1288,1.1285,1.1282,1.1234,1.1235,1.1236,0,0,0,0,0,0,0,0,0,0,0,0,0,1.1443,1.1465,1.1464,1.1397,1.139,1.1412,1.1411,1.141,1.1292,1.1288,1.1285,1.1281,1.1233,1.1235,1.1236,1.132,0,0,1.1241,1.1241,0,0,0,0,0,0,0,0,1.1445,1.1444,1.1407,1.1402,1.1394,1.1354,1.1393,1.138,1.1293,1.133,1.1284,1.1279,1.1277,1.1275,1.1273,1.1318,1.1316,1.1241,1.1242,1.1242,1.1243,0,0,0,0,0,0,0,1.1446,1.1445,1.1443,1.1407,1.1399,1.1371,1.1364,1.139,1.1325,1.1326,1.1317,1.1313,1.1273,1.1272,1.1271,1.1315,1.1241,1.1242,1.1243,1.1244,1.1429,1.1433,0,0,0,0,0,0,1.1457,1.1447,1.1445,1.1442,1.1411,1.1374,1.1366,1.1371,1.1324,1.1314,1.1316,1.1307,1.1272,1.127,1.1269,1.1367,1.1242,1.1244,1.1245,1.1425,1.143,1.1434,0,0,0,0,0,0,1.1457,1.1458,1.1447,1.1442,1.1438,1.1378,1.1384,1.1372,1.1371,1.1317,1.1305,1.1327,1.1269,1.1267,1.1309,1.1363,1.1245,1.1246,1.142,1.1426,1.1432,1.1562,0,0,0,0,0,0,1.1458,1.1459,1.1489,1.1444,1.1439,1.1487,1.1387,1.1373,1.1373,1.1362,1.1324,1.1314,1.1266,1.1307,1.131,1.1363,1.1247,1.1415,1.1423,1.143,1.1552,1.1571,1.1588,0,0,0,0,0,1.1458,1.1528,1.1491,1.1491,1.1475,1.149,1.1488,1.1429,1.1378,1.1409,1.1374,1.1315,1.1356,1.1313,1.1315,1.1369,1.1411,1.1421,1.1429,1.1544,1.1568,1.1587,0,0,0,0,0,0,1.1582,1.152,1.1479,1.1535,1.1519,1.147,1.1507,1.1456,1.1454,1.1443,1.1372,1.1364,1.1417,1.1396,1.1349,1.1449,1.1374,1.1384,1.1461,1.1483,1.15,1.1505,1.1248,0,0,0,0,0,1.1615,1.1631,1.1577,1.1632,1.1626,1.1568,1.1572,1.1529,1.1509,1.1502,1.147,1.1454,1.1464,1.1472,1.1477,1.1548,1.154,1.1587,1.1604,1.1619,1.163,1.1669,1.169,1.1464,1.1464,1.1463,0,0,1.1685,1.1653,1.1668,1.1656,1.1638,1.1658,1.1563,1.1587,1.1602,1.1506,1.1544,1.152,1.1498,1.1556,1.1579,1.1541,1.169,1.1631,1.1643,1.1645,1.168,1.1702,1.1721,1.147,1.1469,1.1468,0,0,1.1823,1.18,1.1844,1.1828,1.1802,1.1763,1.1775,1.1733,1.1714,1.1751,1.168,1.1697,1.1714,1.1702,1.1698,1.1834,1.178,1.1837,1.1931,1.197,1.1988,1.2003,1.2055,1.2074,1.1847,1.1848,1.1848,0,1.1914,1.1939,1.1874,1.1903,1.1902,1.1815,1.1861,1.1849,1.1827,1.1828,1.1784,1.1806,1.1784,1.1839,1.1873,1.1871,1.1884,1.1842,1.199,1.2005,1.2019,1.2067,1.2086,1.1855,1.1854,1.1853,1.1853,0,1.2054,1.2073,1.2112,1.2093,1.2095,1.2133,1.2075,1.2085,1.2042,1.2009,1.2049,1.2021,1.202,1.2029,1.1987,1.208,1.2057,1.2003,1.1926,1.2049,1.2093,1.2111,1.1865,1.1863,1.1861,1.1859,0,0,1.2268,1.2213,1.2229,1.222,1.2185,1.22,1.2235,1.2233,1.2245,1.2233,1.2262,1.2279,1.223,1.2226,1.2182,1.2216,1.2329,1.2157,1.2156,1.2193,1.2432,1.2476,1.2498,1.2292,1.2295,1.2298,1.2435,0,1.24,1.2455,1.2399,1.2467,1.2485,1.2404,1.2434,1.2418,1.2388,1.2401,1.2368,1.2382,1.2314,1.2312,1.2341,1.2309,1.2376,1.2298,1.2322,1.2323,1.2333,1.252,1.2565,1.2696,1.2452,1.2455,1.2457,0,1.2561,1.2557,1.2627,1.259,1.2596,1.2624,1.262,1.2632,1.2613,1.2589,1.2585,1.2532,1.2566,1.249,1.2537,1.2485,1.2491,1.2477,1.248,1.2483,1.2399,1.2531,1.2736,1.2757,1.2483,1.2481,1.2479,0,1.2715,1.2726,1.277,1.2764,1.2722,1.2745,1.2728,1.2704,1.2708,1.2705,1.2707,1.2708,1.271,1.2712,1.2662,1.261,1.2717,1.2635,1.27,1.2702,1.2728,1.2728,1.2941,1.2728,1.2728,1.2727,1.2727,0,1.2869,1.2916,1.2839,1.2866,1.2917,1.2852,1.2904,1.288,1.286,1.2883,1.2811,1.2835,1.2765,1.2781,1.2742,1.2789,1.2789,1.2773,1.2762,1.2781,1.2783,1.2786,1.2776,1.2732,1.2731,1.273,1.2729,0,1.305,1.2999,1.3043,1.2999,1.2989,1.3029,1.2993,1.3017,1.2983,1.3013,1.3016,1.2963,1.2979,1.2928,1.2936,1.2909,1.2979,1.2952,1.2986,1.2979,1.3048,1.3043,1.3272,1.33,1.3067,1.3069,1.3071,0,1.3153,1.3187,1.3148,1.3158,1.3145,1.3162,1.3165,1.3103,1.311,1.3092,1.312,1.3129,1.3134,1.3164,1.3127,1.3133,1.3108,1.3188,1.3108,1.3127,1.3113,1.3113,1.3117,1.3205,1.3208,1.321,1.3212,0,1.3343,1.3316,1.3324,1.3324,1.3331,1.3328,1.332,1.3333,1.3266,1.3278,1.3293,1.3297,1.3305,1.3318,1.3316,1.33,1.3247,1.3237,1.3253,1.3274,1.3293,1.3287,1.3034,1.3233,1.3231,1.3229,1.3228,1.3227,1.3489,1.3517,1.3494,1.3506,1.3494,1.3489,1.3511,1.348,1.3491,1.3493,1.3455,1.3479,1.3461,1.3454,1.3444,1.3463,1.3426,1.3448,1.3455,1.3462,1.3475,1.3288,1.3462,1.3461,1.3461,1.346,1.346,0,1.3678,1.3659,1.3671,1.3663,1.3673,1.362,1.3609,1.3622,1.3644,1.363,1.3637,1.3656,1.3668,1.3633,1.3639,1.3662,1.3638,1.3666,1.3665,1.3663,1.3506,1.3493,1.3686,1.3686,1.3686,1.3686,1.3686,1.3686,1.3777,1.3822,1.3794,1.3834,1.3815,1.3837,1.3837,1.3833,1.3822,1.3847,1.3856,1.3832,1.3811,1.3817,1.3826,1.3815,1.3823,1.3861,1.3842,1.3696,1.3674,1.3653,1.3641,1.3862,1.3862,1.3998,1.3999,1.4]},{"header":{"parameterUnit":"m.s-1","parameterCategory":1,"la1":30.2991,"la2":30.254,"lo1":-89.0895,"lo2":-89.0444,"dx":0.0017,"dy":0.0017,"nx":28,"ny":28,"refTime":"2023-01-22T03:00:00:Z","depth":0,"parameterNumber":3,"parameterNumberName":"V-component_of_WINDS"},"data":[0,0,0,0,0,0,0,0,0,0,0,0,0,0,0,0,0,0,0,0,0,0,0,0,0,0,0,0,0,0,0,0,0,0,0,0,0,0,0,0,0,0,0,0,0,0,0,0,0,0,0,0,0,0,0,0,0,0,3.3232,3.3234,0,3.3454,3.3457,3.3459,3.349,3.3488,3.3486,3.3484,3.3712,3.3719,3.3727,0,0,0,0,0,0,0,0,0,0,0,0,0,3.2835,3.2842,3.3232,3.3235,3.3237,3.3454,3.3457,3.346,3.3491,3.3488,3.3486,3.3483,3.3709,3.3718,3.3728,0,0,0,0,0,0,0,0,0,0,0,0,0,3.3027,3.2845,3.3231,3.3279,3.3285,3.3453,3.3457,3.3461,3.3491,3.3488,3.3485,3.3482,3.3706,3.3718,3.3729,3.3865,0,0,3.3766,3.3771,0,0,0,0,0,0,0,0,3.3016,3.3042,3.3269,3.3276,3.3284,3.3441,3.34,3.3596,3.3492,3.3413,3.3484,3.3481,3.3624,3.3643,3.3691,3.3876,3.3885,3.3767,3.3774,3.3779,3.3783,0,0,0,0,0,0,0,3.3003,3.3032,3.332,3.3272,3.3281,3.3289,3.3313,3.3438,3.3533,3.342,3.3423,3.3448,3.3628,3.368,3.3697,3.3889,3.3767,3.3777,3.3785,3.3789,3.4197,3.4201,0,0,0,0,0,0,3.2981,3.3021,3.3313,3.3326,3.314,3.3299,3.3326,3.3394,3.3532,3.355,3.3451,3.3449,3.3661,3.3683,3.3705,3.3874,3.3779,3.379,3.3797,3.4194,3.4198,3.4202,0,0,0,0,0,0,3.2972,3.3007,3.3304,3.3175,3.3213,3.3309,3.3385,3.34,3.3452,3.3556,3.3573,3.3486,3.3659,3.3688,3.3825,3.3883,3.3796,3.3807,3.4189,3.4195,3.42,3.4213,0,0,0,0,0,0,3.2961,3.3003,3.3056,3.3176,3.322,3.3421,3.3389,3.3406,3.3472,3.3472,3.3593,3.3611,3.3659,3.3807,3.3837,3.3898,3.3816,3.4185,3.4192,3.4198,3.4208,3.4219,3.4227,0,0,0,0,0,3.2947,3.305,3.3058,3.3093,3.3287,3.3424,3.3449,3.3503,3.3477,3.3531,3.3597,3.3607,3.3871,3.3821,3.3855,3.392,3.4181,3.419,3.4198,3.4204,3.4217,3.4227,0,0,0,0,0,0,3.2934,3.3067,3.3077,3.3223,3.3312,3.3429,3.3498,3.3514,3.3612,3.3608,3.367,3.3697,3.3832,3.3889,3.3831,3.4059,3.4024,3.4039,3.4017,3.403,3.4039,3.4023,3.3826,0,0,0,0,0,3.2949,3.3048,3.3158,3.3276,3.332,3.3401,3.3463,3.3496,3.3591,3.3629,3.3706,3.3797,3.3901,3.3968,3.407,3.4216,3.4244,3.4277,3.4287,3.4294,3.4307,3.4391,3.4408,3.4229,3.4229,3.4229,0,0,3.2979,3.3064,3.3123,3.3276,3.3349,3.3451,3.3433,3.3542,3.3618,3.3645,3.3781,3.384,3.3946,3.4089,3.4156,3.4141,3.4363,3.4305,3.431,3.4319,3.4401,3.4418,3.4433,3.4235,3.4234,3.4233,0,0,3.3088,3.3161,3.3268,3.3342,3.3452,3.3506,3.3531,3.3647,3.3687,3.3823,3.3846,3.3938,3.4115,3.4191,3.4252,3.439,3.4403,3.4421,3.4472,3.4552,3.4567,3.4579,3.463,3.4648,3.4433,3.4433,3.4433,0,3.3112,3.3267,3.3321,3.343,3.3497,3.3526,3.3635,3.3704,3.3842,3.3888,3.3869,3.4093,3.4167,3.4329,3.4362,3.4411,3.4443,3.4408,3.456,3.4573,3.4586,3.4636,3.4654,3.4435,3.4435,3.4435,3.4434,0,3.3292,3.3399,3.3472,3.3605,3.3681,3.3789,3.386,3.3929,3.3956,3.4012,3.4151,3.424,3.4361,3.4401,3.4428,3.4567,3.4555,3.4547,3.4514,3.4604,3.4651,3.4671,3.4437,3.4437,3.4436,3.4436,0,0,3.34,3.3562,3.3588,3.3649,3.3774,3.3858,3.3968,3.4086,3.4145,3.4239,3.4334,3.4483,3.4477,3.4547,3.4583,3.4653,3.4759,3.4638,3.4641,3.4659,3.492,3.4926,3.4947,3.4767,3.4771,3.4774,3.4912,0,3.3524,3.3721,3.3773,3.3941,3.4041,3.407,3.4166,3.4253,3.4308,3.4401,3.4461,3.4567,3.455,3.4593,3.4664,3.4731,3.4812,3.4721,3.4857,3.4861,3.4832,3.4972,3.4979,3.5104,3.493,3.4933,3.4936,0,3.3696,3.3794,3.3971,3.4084,3.4128,3.4214,3.4327,3.4415,3.4515,3.455,3.4628,3.4657,3.4773,3.4732,3.4894,3.4831,3.4889,3.493,3.4936,3.4953,3.4905,3.4994,3.5145,3.5165,3.4965,3.4963,3.4961,0,3.3759,3.3935,3.4065,3.4116,3.4251,3.431,3.4369,3.4465,3.4533,3.4632,3.4677,3.4787,3.4849,3.4934,3.4992,3.4957,3.515,3.5113,3.5183,3.5182,3.5224,3.5221,3.539,3.5258,3.5258,3.5257,3.5257,0,3.3893,3.4001,3.4095,3.4175,3.4297,3.4356,3.4476,3.4535,3.4621,3.4713,3.4745,3.4831,3.4902,3.4998,3.5044,3.5172,3.5199,3.5231,3.5243,3.523,3.5226,3.527,3.5264,3.5263,3.5261,3.526,3.526,0,3.3985,3.4052,3.4196,3.4311,3.4343,3.4428,3.4527,3.4606,3.4661,3.4778,3.4809,3.4896,3.5011,3.5077,3.5222,3.5253,3.5396,3.5402,3.5362,3.5368,3.5435,3.5429,3.564,3.5671,3.5517,3.5518,3.5519,0,3.4068,3.4152,3.4276,3.4341,3.44,3.4503,3.4573,3.4634,3.4706,3.4826,3.4891,3.5007,3.5104,3.5286,3.5362,3.5473,3.5484,3.555,3.5501,3.5486,3.5488,3.5483,3.5492,3.5559,3.556,3.5562,3.5562,0,3.4207,3.4237,3.4336,3.4448,3.4531,3.4622,3.4712,3.4763,3.4839,3.4918,3.5036,3.5111,3.5259,3.5375,3.5492,3.5553,3.5572,3.5577,3.56,3.5589,3.5563,3.558,3.5388,3.5573,3.5572,3.5571,3.557,3.557,3.4299,3.4376,3.4476,3.4586,3.466,3.4744,3.4825,3.489,3.499,3.5115,3.5145,3.5269,3.5368,3.5527,3.5591,3.5689,3.5678,3.571,3.5719,3.5726,3.573,3.5545,3.5711,3.571,3.571,3.571,3.571,0,3.4442,3.4508,3.4609,3.4735,3.4822,3.4831,3.4931,3.5004,3.5113,3.5203,3.5298,3.5434,3.5547,3.5632,3.5747,3.581,3.5822,3.5839,3.5836,3.585,3.5732,3.5702,3.5827,3.5827,3.5827,3.5827,3.5827,3.5827,3.4527,3.4658,3.4699,3.4867,3.4933,3.5055,3.5112,3.519,3.5262,3.5413,3.5507,3.5562,3.5651,3.5773,3.5877,3.59,3.5942,3.5958,3.5982,3.587,3.5858,3.5846,3.5818,3.5966,3.5966,3.6092,3.6093,3.6094]}]]